Regional Weather Roundup
Issued by NWS

Home | Current Version | Previous Version | Text Only | Print | Product List | Glossary Off
Versions: 1 2 3 4 5 6 7 8 9 10 11 12 13 14 15 16 17 18 19 20 21 22 23 24 25 26 27 28 29 30 31 32 33 34 35 36 37 38 39 40 41 42 43 44 45 46 47 48 49 50

524
ASUS43 KLMK 201302
RWRKY
KENTUCKY REGIONAL WEATHER ROUNDUP
NATIONAL WEATHER SERVICE LOUISVILLE KY
900 AM EDT SUN AUG 20 2017

NOTE "FAIR" INDICATES FEW OR NO CLOUDS BELOW 12,000 FEET
WITH NO SIGNIFICANT WEATHER AND/OR OBSTRUCTIONS TO VISIBILITY.

KYZ001>023-026-027-061>063-070>075-201400-
WESTERN AND SOUTH CENTRAL KENTUCKY

CITY           SKY/WX    TMP DP  RH WIND       PRES   REMARKS
PADUCAH        SUNNY     74  70  87 SE3       30.04R
HENDERSON      CLOUDY    73  71  93 E6        30.06R
OWENSBORO      NOT AVBL
HOPKINSVILLE   SUNNY     74  71  92 CALM      30.07R
BOWLING GREEN  SUNNY     75  72  90 CALM      30.09R
GLASGOW        SUNNY     73  70  91 CALM      30.10R
$$

KYZ024-025-028>034-038-045-046-053-201400-
NORTH CENTRAL KENTUCKY

CITY           SKY/WX    TMP DP  RH WIND       PRES   REMARKS
LOUISVILLE/SDF MOSUNNY   77  70  79 CALM      30.08R
LOUISVILLE/LOU SUNNY     76  72  87 CALM      30.09R
FORT KNOX      SUNNY     75  70  83 SW3       30.09R
$$

KYZ035>037-039>044-047>052-055>060-089>105-201400-
NORTHEAST KENTUCKY

CITY           SKY/WX    TMP DP  RH WIND       PRES   REMARKS
LEXINGTON      SUNNY     74  67  78 S5        30.11R
COVINGTON      SUNNY     74  70  87 SW3       30.09R
FRANKFORT      SUNNY     75  67  76 CALM      30.08R
$$

KYZ054-064>069-076>088-106>120-201400-
SOUTHEAST KENTUCKY

CITY           SKY/WX    TMP DP  RH WIND       PRES   REMARKS
JACKSON        SUNNY     71  67  87 VRB3      30.13R
LONDON         SUNNY     71  67  87 CALM      30.13R
SOMERSET       NOT AVBL
MIDDLESBORO    CLOUDY    66  66 100 CALM      30.15R FOG
MONTICELLO     SUNNY     71  68  90 W3        30.13R
$$





USA.gov is the U.S. government's official web portal to all federal, state and local government web resources and services.